Theta_e
308 309 310 308 309 310 309 309 310 312 313 314 314 315 315 315 317 319 320 320 322 323 323 322 321 319 314 306 304 316 324 326 321 318 314 310 306 304 298 299 298 296 298 304 304 305 304
307 307 308 309 308 310 309 309 309 310 312 313 314 315 315 314 315 317 319 320 321 323 323 322 320 320 307 294 310 317 318 319 319 314 313 312 308 307 301 298 296 299 300 300 303 303 303
307 307 308 308 309 310 310 311 308 309 310 312 314 314 315 314 314 316 319 318 320 322 322 321 319 313 303 297 311 313 315 314 317 314 311 314 312 305 302 297 300 298 294 297 300 301 300
306 307 307 309 308 309 310 310 309 309 310 312 314 314 314 314 314 315 318 318 319 320 321 321 320 307 295 307 308 311 312 313 318 318 314 315 315 306 301 299 297 293 292 289 294 300 299
306 307 309 310 310 308 309 310 309 309 310 312 314 314 314 313 314 315 318 318 318 318 321 320 306 299 292 311 304 308 311 310 315 316 316 316 310 302 299 293 290 289 284 285 291 297 298
309 309 310 310 311 308 308 309 310 309 311 312 314 313 313 313 313 314 317 317 317 316 317 310 309 296 297 296 306 308 309 314 311 310 309 305 299 295 292 289 283 285 285 286 287 289 294
309 309 309 310 310 310 309 308 309 309 310 312 313 313 313 312 313 314 314 311 304 304 304 299 298 296 298 303 307 304 309 311 310 305 297 299 292 290 292 293 290 289 287 285 286 289 288
308 309 309 309 309 310 309 310 309 309 310 311 312 313 312 312 311 313 310 304 305 306 297 304 302 301 302 303 297 301 311 302 303 294 297 294 288 292 297 294 291 289 285 283 286 290 289
307 308 308 308 309 309 308 308 309 309 309 311 311 312 312 311 312 308 307 304 309 310 295 298 302 299 300 302 296 297 306 303 297 294 294 288 288 295 296 293 289 286 284 283 285 287 287
307 307 308 308 308 308 308 308 308 310 310 311 311 311 311 311 303 303 302 307 308 310 287 290 296 300 301 301 295 301 307 302 297 292 294 290 291 293 290 289 291 285 289 288 287 284 279
307 307 308 308 308 308 308 308 308 309 310 310 311 311 311 307 299 301 304 307 305 304 276 293 296 307 302 297 296 296 306 300 293 292 292 287 290 290 289 289 293 288 292 290 288 283 282
309 308 309 308 309 308 308 308 307 309 309 310 310 310 309 302 301 305 305 304 300 285 275 288 296 295 294 296 295 298 300 300 299 294 292 288 292 293 292 293 294 293 290 289 286 283 275
310 310 310 309 309 308 308 308 307 308 309 309 310 309 303 301 298 306 301 297 282 276 287 285 289 294 293 292 292 294 293 291 288 285 285 288 288 291 293 290 292 290 285 274 272 273 273
310 310 309 309 310 309 308 308 307 309 309 310 309 305 304 303 304 303 295 285 276 280 282 288 288 292 289 292 291 290 290 289 291 286 285 283 281 289 294 291 289 288 284 278 271 273 274
310 310 310 309 309 309 309 308 309 309 309 309 306 298 300 303 303 300 289 279 277 280 285 284 288 286 287 290 290 290 289 289 291 289 283 282 282 289 292 293 293 288 284 286 280 271 272
310 310 310 310 309 310 309 308 309 308 309 307 299 296 296 301 301 291 282 280 281 286 287 286 280 283 282 287 287 287 287 290 290 292 290 287 281 287 290 293 291 289 291 281 276 268 267
309 310 310 310 309 309 308 308 308 308 307 306 296 288 297 301 295 283 271 277 284 288 288 284 282 282 282 282 284 286 286 289 292 291 293 289 285 284 289 287 287 287 286 286 285 279 272
309 309 309 309 309 308 308 308 309 308 305 298 291 283 297 295 278 277 277 278 285 285 287 286 287 284 282 283 282 282 284 285 291 292 288 291 287 280 284 288 289 291 288 289 282 276 278
310 309 309 309 309 309 309 308 308 306 303 292 286 286 296 289 273 277 280 277 283 282 284 283 283 286 286 283 276 283 284 288 290 289 290 291 285 279 280 284 285 284 288 289 288 283 280
309 309 309 308 308 308 307 306 306 304 301 292 284 279 285 283 276 274 273 270 274 284 284 285 283 286 284 283 285 281 284 287 291 288 290 292 286 283 278 279 285 283 285 288 287 282 282
308 307 307 307 307 306 305 306 305 304 300 290 280 279 274 277 276 271 275 276 274 273 283 284 281 280 281 277 281 281 285 286 288 290 290 290 283 284 285 283 282 284 285 287 286 286 282
307 306 306 306 306 306 304 304 303 302 297 283 278 279 277 277 280 277 272 271 275 273 279 279 279 281 282 278 281 277 283 283 283 287 286 287 281 283 283 284 283 282 284 286 287 287 287
306 307 306 306 306 307 305 305 303 300 295 284 285 282 280 279 272 272 272 273 278 280 280 282 282 281 280 282 284 285 286 285 285 283 283 284 280 278 274 281 282 279 283 285 286 288 288
306 305 305 305 305 305 305 305 304 302 295 287 283 281 276 270 274 274 279 280 279 280 278 280 282 281 282 286 285 285 284 284 285 284 286 278 278 279 270 276 271 281 285 287 286 288 289
306 305 305 305 305 305 305 304 304 302 299 288 285 281 275 271 273 277 278 279 280 280 281 281 282 283 285 285 277 271 270 274 272 280 283 284 280 272 269 271 278 280 282 283 282 284 290
304 305 305 305 305 305 305 305 304 303 300 288 286 284 281 275 272 280 276 280 270 268 276 279 283 284 284 282 275 262 260 262 267 271 284 285 284 278 264 268 264 278 282 284 287 280 290
302 302 303 304 304 304 304 305 304 303 301 291 287 286 282 274 277 278 276 275 280 278 277 280 283 284 287 277 263 263 264 270 267 265 272 277 278 275 274 273 274 282 284 286 278 280 284
299 300 301 301 302 302 302 302 303 304 302 292 287 287 285 274 278 284 281 278 277 277 275 278 281 281 276 271 266 264 263 270 271 273 273 273 267 270 271 273 270 282 282 282 285 287 284
297 298 299 300 300 300 301 301 301 301 302 295 287 290 289 281 280 285 285 285 284 283 278 284 280 277 279 272 269 266 264 263 267 265 279 272 277 274 276 275 283 284 285 287 286 285 286
Wind_Speed
15 13 15 13 16 14 11 11 12 13 12 12 12 11 10 10 9 9 7 5 8 9 8 7 5 3 1 3 6 2 2 4 2 1 2 3 4 2 1 3 3 3 4 4 3 5 5
14 16 17 16 15 17 13 11 12 13 14 13 13 12 8 9 10 9 9 5 6 8 8 7 6 4 2 4 3 1 2 2 1 1 2 1 4 4 3 3 2 1 3 3 5 4 2
17 17 17 18 16 17 15 16 11 13 15 15 13 13 9 9 10 9 10 6 4 7 9 8 8 2 1 8 3 5 3 2 0 1 3 1 2 2 4 4 1 2 2 3 3 4 3
17 18 17 17 17 17 16 13 13 14 15 16 13 12 10 9 8 8 10 8 2 6 10 10 8 2 5 2 1 2 2 2 2 1 1 2 2 4 4 3 6 4 6 2 3 2 2
18 18 20 19 16 17 17 16 15 15 16 16 12 12 10 8 7 6 8 10 6 5 11 12 4 3 6 1 4 3 1 2 2 2 4 2 3 3 4 6 4 7 4 2 7 3 1
22 22 20 19 19 14 17 17 15 14 16 16 11 12 10 7 6 6 8 8 5 4 10 6 3 2 2 5 3 6 1 3 3 3 4 5 5 3 3 3 7 6 5 4 5 3 3
21 18 16 16 15 17 14 16 17 12 14 13 9 10 8 6 5 6 6 4 3 5 3 5 8 3 2 0 2 3 4 4 3 5 5 2 3 8 8 7 2 6 4 4 2 2 1
20 19 17 16 15 15 10 14 15 12 12 10 9 9 7 5 5 6 5 3 5 2 2 0 2 1 3 2 4 2 4 5 5 5 4 4 8 3 5 5 4 4 4 4 2 2 1
21 19 18 16 15 14 13 12 13 14 10 8 10 9 7 4 2 2 1 3 2 3 4 1 5 2 3 4 1 7 7 5 3 6 4 5 1 8 6 4 6 3 6 4 3 3 2
23 21 19 20 15 14 14 11 10 12 8 6 11 9 7 5 6 2 2 3 5 1 4 5 3 6 3 6 1 2 5 5 2 6 5 3 1 6 2 5 6 4 5 5 5 4 4
25 25 23 21 19 15 13 11 8 8 9 6 10 11 10 5 5 3 3 2 4 1 2 7 6 4 4 6 6 1 2 4 8 6 7 6 5 5 3 4 7 6 6 7 4 3 2
26 27 26 23 21 18 15 13 9 8 9 8 12 13 14 5 3 4 4 4 5 1 5 5 3 7 6 2 3 3 2 4 4 5 2 4 1 4 6 3 7 8 7 7 5 3 3
26 26 25 25 23 20 17 14 10 8 9 12 15 16 5 2 5 3 1 5 2 3 1 3 2 7 9 6 5 4 10 7 7 7 7 2 3 2 4 6 1 3 7 3 4 1 9
28 24 23 20 20 21 20 16 12 10 11 17 19 11 8 3 6 4 4 5 1 1 4 1 3 7 9 5 3 3 10 9 6 3 6 7 5 8 5 5 6 5 7 7 9 6 3
27 21 18 14 16 20 22 17 13 11 16 23 16 3 3 4 3 4 4 5 1 3 2 5 3 0 4 4 4 4 8 8 10 7 5 5 4 1 4 5 9 6 6 5 6 3 3
25 22 19 10 14 21 22 18 13 16 24 19 4 4 4 7 3 5 6 4 2 3 3 4 8 6 6 4 2 5 10 7 4 8 1 2 2 2 4 3 2 7 8 3 3 2 4
24 24 23 23 22 23 22 18 19 26 21 18 5 5 5 8 3 6 4 2 4 3 2 5 3 3 4 5 6 3 7 3 4 2 6 1 1 1 4 7 9 4 4 4 5 6 6
25 25 25 25 25 22 20 22 28 26 26 9 3 5 5 4 7 2 3 2 1 3 2 5 3 3 2 3 3 5 5 7 15 5 6 6 1 4 6 0 2 4 5 11 4 5 4
24 24 24 23 21 23 27 27 25 17 12 4 4 3 2 4 4 3 2 3 2 1 4 3 2 1 1 3 5 6 4 5 8 11 6 8 5 4 1 2 2 5 5 6 3 3 9
28 29 31 30 29 28 26 20 15 14 9 5 5 4 4 4 2 6 4 2 3 6 4 3 3 0 1 3 3 4 2 1 6 2 13 8 4 6 9 3 7 6 8 11 11 7 16
26 27 27 26 25 23 19 15 14 8 5 6 4 2 2 3 0 4 2 3 2 3 0 1 1 2 2 3 2 1 2 2 3 4 3 3 4 5 15 6 1 5 8 13 17 23 15
22 22 20 19 18 18 16 10 8 1 6 6 5 6 3 3 1 3 4 2 4 3 4 2 3 1 5 4 4 3 2 5 3 1 2 2 3 5 6 8 9 13 7 14 21 22 17
20 20 20 19 18 16 13 11 13 4 6 4 1 2 6 3 2 4 3 3 2 4 2 3 3 2 1 6 5 6 5 4 3 3 2 3 1 2 5 2 6 6 23 24 17 16 19
17 17 17 18 18 18 18 19 20 16 9 5 2 4 5 1 2 3 1 1 1 2 2 2 3 3 2 4 2 2 1 3 3 5 6 2 2 3 5 4 6 11 4 12 22 23 19
15 15 15 15 15 16 16 16 17 19 15 5 2 4 4 3 2 2 1 2 4 6 5 4 4 1 4 6 5 6 6 6 5 3 11 11 4 1 2 4 7 10 9 6 10 18 21
13 14 13 11 13 15 16 16 17 15 10 5 3 1 4 7 6 3 4 3 3 1 4 5 4 4 2 2 3 3 3 4 5 9 0 9 8 4 1 4 7 12 2 3 5 8 18
11 10 10 11 11 11 12 13 13 13 12 5 3 3 5 5 3 5 4 5 4 2 1 3 4 4 4 2 3 3 4 3 3 3 3 3 3 12 10 7 8 12 5 1 6 12 1
7 8 7 8 8 9 9 10 9 9 9 5 0 2 4 3 3 7 5 5 2 1 4 4 2 2 2 2 3 3 3 5 1 3 4 6 5 4 3 6 10 2 3 8 6 5 3
6 8 7 6 7 8 9 8 7 6 4 4 2 2 2 4 5 4 5 3 5 8 6 3 3 3 4 4 1 3 2 2 2 4 2 3 8 5 9 8 6 5 8 10 5 6 13
Wind_Direction
326 320 316 311 306 306 312 322 325 324 320 289 265 259 266 286 299 282 261 272 203 194 186 178 187 188 132 141 252 316 12 14 39 43 248 184 136 136 159 50 345 65 2 24 33 75 101
316 315 315 314 294 307 303 309 315 318 307 310 268 249 248 267 287 286 253 273 236 196 178 171 154 135 105 196 308 320 7 115 124 151 178 174 183 162 113 104 135 316 66 4 9 24 58
318 314 310 308 304 302 304 303 304 307 305 307 279 244 219 249 268 278 244 240 276 217 181 163 144 109 61 233 15 341 15 96 122 164 156 222 105 124 120 127 335 52 64 6 17 354 31
307 300 292 289 294 298 300 295 296 301 306 307 280 231 205 233 256 259 247 217 209 263 180 150 145 93 245 257 303 331 0 10 52 64 120 167 91 104 98 123 31 67 49 86 314 18 23
297 287 291 291 274 288 292 296 290 297 306 307 267 217 198 222 256 255 248 195 193 274 182 140 101 124 250 144 166 191 134 122 84 33 46 78 57 95 58 113 60 14 162 172 316 203 65
299 295 297 297 285 271 281 286 287 291 303 308 239 197 191 218 260 260 214 156 161 322 171 88 69 105 229 215 174 137 107 100 102 111 72 51 44 91 54 127 190 175 178 211 203 341 51
304 303 308 304 302 280 258 271 283 282 299 311 211 188 187 211 254 260 175 148 132 185 246 159 183 209 111 351 73 108 145 102 87 69 147 63 133 202 180 200 131 134 129 154 241 343 188
306 309 309 310 308 298 303 268 266 272 291 304 204 182 192 201 247 258 173 220 99 75 145 348 68 164 150 218 96 117 130 123 147 151 127 94 226 165 142 140 126 121 134 189 265 40 140
308 305 301 291 298 294 287 284 281 261 269 284 211 176 176 183 184 86 185 76 12 49 38 299 164 297 167 134 123 183 138 120 139 129 178 172 198 159 160 151 152 159 163 167 178 26 56
304 301 295 288 284 285 282 279 284 249 247 265 216 166 158 138 77 136 118 112 39 13 187 194 222 212 140 131 229 179 185 132 149 147 109 278 224 144 137 177 136 218 173 140 122 84 239
296 291 285 277 277 268 268 259 263 254 231 233 192 151 143 89 140 94 102 39 35 129 226 145 155 329 172 148 127 325 276 58 146 149 130 231 176 146 168 216 145 218 155 154 132 127 28
292 285 277 268 260 253 248 240 239 236 208 194 164 137 118 71 56 99 118 92 36 26 237 164 125 159 145 133 85 106 149 47 120 109 65 193 102 164 192 149 160 140 92 57 55 83 292
304 293 278 264 251 239 226 221 214 205 192 169 140 127 80 111 120 156 14 50 123 205 294 139 188 164 165 148 126 145 180 163 156 155 189 149 202 188 142 103 73 118 111 41 5 26 232
319 307 287 267 237 217 204 197 190 186 167 142 128 84 42 73 134 120 61 71 178 201 315 97 323 147 189 130 120 109 153 181 234 105 150 169 215 168 182 174 172 182 150 156 195 196 263
336 334 317 247 220 192 179 176 170 167 145 130 108 57 54 26 6 69 67 90 159 303 250 16 40 272 171 124 136 125 190 203 194 186 169 157 255 89 160 156 142 201 209 151 102 52 48
4 9 19 114 154 155 154 155 147 141 131 119 84 66 40 329 7 55 70 100 66 15 340 48 43 355 38 184 160 173 166 211 215 179 129 246 176 350 150 113 55 160 147 84 14 149 267
25 37 60 85 105 126 135 135 132 119 110 104 60 74 348 333 37 48 103 101 94 24 326 61 95 334 72 32 14 227 189 336 236 225 161 86 271 318 135 205 171 146 172 200 135 159 185
45 57 70 82 96 107 117 123 123 121 114 46 81 79 327 23 56 15 105 162 251 147 275 88 101 109 96 109 73 5 320 21 338 255 187 187 185 191 203 6 358 247 222 189 185 230 248
55 60 69 77 89 102 111 116 115 100 85 115 76 64 334 81 120 105 7 343 311 61 51 79 79 343 186 176 163 161 120 275 350 337 185 161 201 147 329 348 7 202 196 209 181 87 215
66 71 74 76 79 87 92 94 87 70 82 86 94 97 360 54 128 126 132 331 32 14 51 75 118 108 242 233 353 53 171 256 182 205 325 333 200 205 217 177 136 190 194 204 208 223 246
65 72 71 74 79 81 80 75 67 7 66 87 34 86 190 127 22 104 88 155 103 115 269 65 38 146 107 33 43 338 313 315 311 26 243 233 274 207 260 270 247 200 199 215 216 231 228
70 70 65 66 67 83 77 39 318 183 104 79 125 140 36 85 49 71 11 201 139 262 156 241 162 103 178 168 172 186 173 233 175 191 340 90 283 24 278 255 232 250 235 228 224 235 240
60 64 66 67 67 69 66 56 44 74 104 100 115 51 98 3 5 68 252 214 237 169 215 180 181 84 156 250 242 232 215 258 211 108 345 295 59 75 258 50 2 256 233 230 232 228 223
59 53 51 50 51 51 48 46 42 47 72 108 145 106 86 212 69 191 188 125 235 316 304 355 97 115 285 356 324 20 23 262 231 235 198 269 238 163 259 71 254 236 256 223 239 250 246
54 53 54 50 45 45 44 40 42 49 53 84 112 98 109 111 166 8 83 62 14 347 337 312 306 248 347 52 4 358 340 9 328 248 204 199 202 265 201 202 290 308 249 187 180 251 247
42 49 53 57 64 56 49 45 43 44 55 80 60 86 95 120 243 134 122 165 166 217 337 290 318 349 88 79 83 134 248 214 304 329 140 191 216 199 40 215 220 242 147 199 113 252 248
27 34 46 51 52 50 47 45 45 43 50 87 46 30 84 99 257 128 175 170 168 126 195 284 325 9 19 96 84 148 258 227 246 177 167 143 210 225 236 240 273 264 220 123 168 249 306
21 20 24 40 48 42 35 29 27 32 42 85 186 5 105 123 250 184 189 135 82 134 172 232 79 306 48 78 114 230 172 230 72 243 179 175 172 215 209 230 248 290 28 188 279 290 231
7 8 11 13 22 23 15 3 357 360 60 87 72 349 83 109 211 197 215 205 177 182 147 174 176 173 213 91 216 108 258 7 167 278 258 258 191 204 195 225 262 217 213 245 207 274 302